[[{"header":{"parameterUnit":"m.s-1","parameterCategory":1,"la1":30.2991,"la2":30.254,"lo1":-89.0895,"lo2":-89.0444,"dy":0.0017,"dx":0.0017,"nx":28,"ny":28,"refTime":"2025-08-13T21:00:00:Z","depth":0,"parameterNumber":2,"parameterNumberName":"U-component_of_WINDS"},"data":[0,0,0,0,0,0,0,0,0,0,0,0,0,0,0,0,0,0,0,0,0,0,0,0,0,0,0,0,0,0,0,0,0,0,0,0,0,0,0,0,0,0,0,0,0,0,0,0,0,0,0,0,0,0,0,0,0,0,4.1983,4.1984,0,4.2058,4.2059,4.206,4.1987,4.1984,4.1981,4.1978,4.2055,4.206,4.2064,0,0,0,0,0,0,0,0,0,0,0,0,0,4.1775,4.1779,4.1983,4.1984,4.1985,4.2058,4.2059,4.206,4.1987,4.1984,4.198,4.1977,4.2053,4.2059,4.2065,0,0,0,0,0,0,0,0,0,0,0,0,0,4.1859,4.178,4.1983,4.1957,4.1956,4.2058,4.2059,4.206,4.1988,4.1984,4.1979,4.1975,4.2052,4.2058,4.2065,4.2197,0,0,4.2087,4.209,0,0,0,0,0,0,0,0,4.1854,4.1867,4.196,4.1959,4.1958,4.2009,4.2014,4.2106,4.1989,4.1976,4.1978,4.1973,4.2043,4.2051,4.2074,4.22,4.2203,4.2088,4.2092,4.2095,4.2097,0,0,0,0,0,0,0,4.1849,4.1863,4.2013,4.1962,4.196,4.1942,4.1949,4.2031,4.2033,4.1977,4.1971,4.1981,4.2042,4.2068,4.2075,4.2205,4.2088,4.2094,4.2098,4.2101,4.2438,4.2443,0,0,0,0,0,0,4.1846,4.1859,4.201,4.2015,4.1894,4.1949,4.1957,4.1997,4.2032,4.2033,4.1985,4.1978,4.2058,4.2067,4.2078,4.2231,4.2095,4.2102,4.2106,4.2434,4.2439,4.2445,0,0,0,0,0,0,4.1842,4.186,4.2007,4.1936,4.1953,4.1957,4.2002,4.2001,4.2026,4.2038,4.2038,4.2011,4.2054,4.2068,4.2167,4.2233,4.2105,4.2112,4.2428,4.2436,4.2442,4.254,0,0,0,0,0,0,4.1836,4.1859,4.1909,4.1937,4.1957,4.2096,4.2007,4.2005,4.2039,4.203,4.2063,4.2064,4.2052,4.2157,4.2174,4.224,4.2117,4.2422,4.2431,4.244,4.2531,4.255,4.2566,0,0,0,0,0,4.1829,4.1935,4.1912,4.1931,4.202,4.21,4.2111,4.2095,4.2045,4.2095,4.2102,4.2063,4.2223,4.2167,4.2186,4.2256,4.2418,4.2429,4.2439,4.2523,4.2546,4.2565,0,0,0,0,0,0,4.1915,4.1938,4.1913,4.2032,4.2064,4.2087,4.215,4.212,4.2168,4.2158,4.2136,4.2144,4.2248,4.2262,4.22,4.2383,4.2312,4.2327,4.237,4.2392,4.2409,4.2402,4.2123,0,0,0,0,0,4.1947,4.2011,4.2027,4.213,4.2148,4.2146,4.2181,4.2165,4.2198,4.2212,4.2226,4.226,4.2317,4.2355,4.2409,4.2533,4.2538,4.259,4.2608,4.2622,4.2634,4.2698,4.2721,4.2479,4.2479,4.2479,0,0,4.2016,4.2036,4.2078,4.2148,4.2171,4.2236,4.2159,4.2231,4.2278,4.2223,4.2316,4.2328,4.2364,4.2475,4.2525,4.249,4.2702,4.2635,4.2646,4.2651,4.2711,4.2734,4.2754,4.2486,4.2485,4.2484,0,0,4.2173,4.2196,4.2282,4.2307,4.2343,4.2341,4.2362,4.239,4.2395,4.2489,4.2448,4.2504,4.2604,4.263,4.2657,4.2822,4.2787,4.284,4.293,4.2992,4.3011,4.3028,4.3084,4.3105,4.2853,4.2853,4.2853,0,4.2253,4.2349,4.2331,4.2405,4.2436,4.2389,4.2475,4.25,4.2553,4.2575,4.2535,4.2658,4.2679,4.2794,4.2834,4.2858,4.288,4.2835,4.301,4.3027,4.3042,4.3095,4.3117,4.2859,4.2858,4.2858,4.2857,0,4.2444,4.2512,4.2577,4.2628,4.2667,4.2747,4.274,4.2781,4.2763,4.2765,4.2859,4.2882,4.2939,4.2965,4.2949,4.3078,4.3055,4.3013,4.2941,4.3071,4.3121,4.3141,4.2868,4.2865,4.2864,4.2862,0,0,4.2657,4.2696,4.272,4.2741,4.2777,4.2828,4.2906,4.296,4.2995,4.3033,4.3096,4.3181,4.3142,4.3172,4.3158,4.3213,4.3339,4.3164,4.3164,4.3193,4.3479,4.3509,4.3533,4.3316,4.332,4.3323,4.3475,0,4.2813,4.2947,4.2932,4.306,4.3121,4.3076,4.3143,4.3172,4.3175,4.3227,4.3231,4.329,4.3236,4.3253,4.3306,4.3312,4.3395,4.3301,4.3373,4.3376,4.3363,4.3559,4.3591,4.3733,4.3495,4.3498,4.3501,0,4.3013,4.3056,4.319,4.3214,4.3239,4.33,4.3347,4.3398,4.3429,4.3427,4.346,4.3436,4.3512,4.344,4.3544,4.348,4.3509,4.3516,4.3521,4.3525,4.3445,4.3566,4.3779,4.3799,4.3532,4.3529,4.3527,0,4.3151,4.3243,4.3334,4.3354,4.3386,4.3429,4.3444,4.3471,4.3504,4.3546,4.3566,4.3617,4.3644,4.3683,4.3672,4.3621,4.3778,4.3706,4.3777,4.3777,4.3811,4.3808,4.4028,4.3834,4.3833,4.3833,4.3832,0,4.3325,4.3408,4.3397,4.3453,4.3543,4.3525,4.3615,4.3625,4.3649,4.3704,4.3669,4.3723,4.3706,4.3758,4.375,4.3836,4.3849,4.3849,4.3845,4.3851,4.385,4.3867,4.3856,4.3838,4.3837,4.3836,4.3835,0,4.3495,4.3491,4.3586,4.3608,4.3615,4.3681,4.3699,4.375,4.3751,4.3822,4.3838,4.3839,4.3898,4.3891,4.3958,4.3953,4.4058,4.4044,4.4047,4.4043,4.4114,4.4106,4.4351,4.4381,4.4169,4.4171,4.4173,0,4.3605,4.3667,4.3695,4.373,4.3747,4.3805,4.3837,4.3821,4.3857,4.3896,4.3943,4.3999,4.4042,4.4139,4.4145,4.4196,4.4181,4.4263,4.4188,4.419,4.4179,4.4174,4.4179,4.4277,4.4279,4.4281,4.4283,0,4.38,4.3794,4.3844,4.3892,4.3932,4.3969,4.4003,4.4033,4.402,4.4062,4.4122,4.4155,4.4223,4.4278,4.4325,4.4339,4.4309,4.4307,4.4325,4.433,4.4328,4.4327,4.4085,4.4301,4.4299,4.4298,4.4297,4.4296,4.3941,4.3994,4.402,4.4076,4.4099,4.4131,4.418,4.4186,4.4235,4.4288,4.4276,4.4343,4.437,4.443,4.445,4.4501,4.4471,4.4499,4.4505,4.4512,4.4518,4.4322,4.451,4.4509,4.4509,4.4508,4.4508,0,4.4132,4.4147,4.4198,4.4245,4.4288,4.4256,4.4291,4.4328,4.4388,4.4416,4.4459,4.4527,4.458,4.459,4.464,4.4679,4.4666,4.4692,4.4688,4.4691,4.4544,4.4521,4.4702,4.4702,4.4702,4.4702,4.4702,4.4702,4.4236,4.4322,4.4319,4.4416,4.443,4.4494,4.4517,4.4545,4.4567,4.4644,4.4687,4.4694,4.4714,4.4765,4.4812,4.4813,4.4832,4.4864,4.4859,4.4721,4.4702,4.4683,4.4662,4.4869,4.4869,4.5002,4.5003,4.5004]},{"header":{"parameterUnit":"m.s-1","parameterCategory":1,"la1":30.2991,"la2":30.254,"lo1":-89.0895,"lo2":-89.0444,"dy":0.0017,"dx":0.0017,"nx":28,"ny":28,"refTime":"2025-08-13T21:00:00:Z","depth":0,"parameterNumber":3,"parameterNumberName":"V-component_of_WINDS"},"data":[0,0,0,0,0,0,0,0,0,0,0,0,0,0,0,0,0,0,0,0,0,0,0,0,0,0,0,0,0,0,0,0,0,0,0,0,0,0,0,0,0,0,0,0,0,0,0,0,0,0,0,0,0,0,0,0,0,0,2.4062,2.4063,0,2.4138,2.4139,2.4139,2.4133,2.4132,2.4131,2.413,2.4203,2.4206,2.4209,0,0,0,0,0,0,0,0,0,0,0,0,0,2.3909,2.3911,2.4062,2.4063,2.4064,2.4138,2.4139,2.414,2.4133,2.4132,2.413,2.4129,2.4202,2.4206,2.4209,0,0,0,0,0,0,0,0,0,0,0,0,0,2.3979,2.3912,2.4062,2.407,2.4071,2.4137,2.4139,2.414,2.4134,2.4132,2.413,2.4129,2.4201,2.4205,2.421,2.4271,0,0,2.4223,2.4225,0,0,0,0,0,0,0,0,2.3975,2.3984,2.4068,2.407,2.4071,2.4124,2.4111,2.4184,2.4134,2.411,2.413,2.4128,2.4178,2.4184,2.4202,2.4275,2.4278,2.4224,2.4227,2.4228,2.423,0,0,0,0,0,0,0,2.397,2.3981,2.4092,2.4069,2.4071,2.4068,2.4076,2.4125,2.4152,2.4112,2.4112,2.4121,2.4178,2.4198,2.4204,2.4279,2.4224,2.4228,2.423,2.4232,2.4405,2.4407,0,0,0,0,0,0,2.3964,2.3977,2.409,2.4094,2.4018,2.4072,2.4081,2.4109,2.4152,2.4157,2.4122,2.412,2.4191,2.4198,2.4206,2.4281,2.4228,2.4233,2.4235,2.4403,2.4405,2.4407,0,0,0,0,0,0,2.3961,2.3974,2.4087,2.4036,2.405,2.4077,2.4108,2.4111,2.4131,2.416,2.4164,2.4137,2.419,2.42,2.4255,2.4283,2.4235,2.4239,2.4401,2.4404,2.4406,2.4431,0,0,0,0,0,0,2.3956,2.3973,2.3998,2.4036,2.4053,2.4136,2.411,2.4114,2.4139,2.4137,2.4175,2.4179,2.4189,2.4249,2.426,2.4288,2.4242,2.4398,2.4402,2.4405,2.4428,2.4434,2.444,0,0,0,0,0,2.3951,2.4001,2.3999,2.4013,2.4085,2.4138,2.4147,2.4158,2.4141,2.4166,2.4184,2.4178,2.4278,2.4254,2.4267,2.4297,2.4397,2.4401,2.4405,2.4425,2.4433,2.4439,0,0,0,0,0,0,2.3964,2.4006,2.4005,2.4069,2.41,2.4136,2.4168,2.4166,2.4202,2.4198,2.4209,2.4218,2.4274,2.4291,2.4263,2.4359,2.4335,2.4342,2.4346,2.4353,2.4359,2.4354,2.4246,0,0,0,0,0,2.3975,2.4016,2.405,2.4103,2.4119,2.4141,2.4164,2.417,2.4202,2.4215,2.4237,2.4267,2.4305,2.433,2.4367,2.443,2.4437,2.4457,2.4463,2.4467,2.4473,2.4507,2.4515,2.4421,2.4421,2.4421,0,0,2.3997,2.4025,2.405,2.4107,2.4131,2.4172,2.4152,2.4196,2.4226,2.4221,2.4275,2.4293,2.4326,2.4386,2.4413,2.4402,2.4501,2.4473,2.4477,2.448,2.4512,2.4521,2.4529,2.4424,2.4424,2.4423,0,0,2.4058,2.4084,2.4131,2.4156,2.4194,2.4208,2.4219,2.4256,2.4267,2.4322,2.4319,2.4354,2.4419,2.4444,2.4464,2.4533,2.4529,2.4545,2.4576,2.4609,2.4616,2.4623,2.4647,2.4655,2.455,2.455,2.4551,0,2.408,2.4143,2.4155,2.42,2.4224,2.4223,2.427,2.4293,2.434,2.4356,2.4343,2.4425,2.4448,2.4512,2.4529,2.4546,2.4558,2.4541,2.4614,2.4621,2.4627,2.465,2.4659,2.4552,2.4552,2.4552,2.4552,0,2.4168,2.4211,2.4245,2.4292,2.432,2.4365,2.4383,2.4409,2.4412,2.4427,2.4482,2.4509,2.4551,2.4566,2.457,2.4631,2.4623,2.4612,2.4588,2.4638,2.4659,2.4668,2.4555,2.4554,2.4553,2.4553,0,0,2.4241,2.4293,2.4305,2.4326,2.4367,2.44,2.4444,2.4486,2.4509,2.4541,2.4578,2.4633,2.4623,2.4646,2.4652,2.468,2.4732,2.4666,2.4667,2.4677,2.48,2.4808,2.4818,2.4729,2.4731,2.4732,2.4797,0,2.4305,2.4386,2.4398,2.4468,2.4508,2.4506,2.4545,2.4573,2.4588,2.4622,2.4637,2.4676,2.4661,2.4675,2.4703,2.472,2.4757,2.4715,2.4762,2.4764,2.4754,2.483,2.4838,2.4898,2.4806,2.4807,2.4808,0,2.4392,2.4428,2.4503,2.4538,2.4555,2.459,2.4628,2.4662,2.4693,2.4701,2.4727,2.4729,2.4774,2.4748,2.4809,2.478,2.48,2.4811,2.4813,2.4818,2.4789,2.4836,2.4918,2.4927,2.4822,2.4821,2.482,0,2.4437,2.4504,2.4557,2.4575,2.4617,2.4641,2.4659,2.4689,2.4713,2.4747,2.4762,2.48,2.482,2.4848,2.4859,2.484,2.4919,2.4895,2.4926,2.4926,2.4943,2.4942,2.5029,2.4956,2.4956,2.4956,2.4955,0,2.4508,2.4554,2.4577,2.461,2.4661,2.4673,2.4722,2.4739,2.4765,2.48,2.48,2.4833,2.4846,2.488,2.4888,2.4937,2.4946,2.4953,2.4955,2.4953,2.4952,2.4966,2.4962,2.4958,2.4958,2.4957,2.4957,0,2.4567,2.4585,2.4643,2.4678,2.4687,2.4723,2.4752,2.4783,2.4797,2.4841,2.4852,2.4873,2.4913,2.4927,2.4975,2.4981,2.5037,2.5035,2.5027,2.5027,2.5058,2.5055,2.5157,2.517,2.5089,2.5089,2.509,0,2.4612,2.4647,2.4686,2.471,2.4729,2.4768,2.4793,2.4805,2.483,2.4868,2.4894,2.4934,2.4967,2.503,2.5049,2.5085,2.5084,2.5117,2.5089,2.5086,2.5084,2.5082,2.5085,2.5122,2.5123,2.5124,2.5125,0,2.4688,2.4695,2.4732,2.4771,2.4801,2.4832,2.4862,2.4881,2.4898,2.4926,2.4967,2.4993,2.5042,2.5081,2.5118,2.5135,2.5132,2.5133,2.5142,2.5141,2.5134,2.5138,2.5041,2.5131,2.513,2.513,2.5129,2.5129,2.4741,2.4772,2.4804,2.4844,2.4868,2.4896,2.4927,2.4945,2.498,2.5022,2.5027,2.5071,2.51,2.5149,2.5168,2.5202,2.5192,2.5206,2.5209,2.5212,2.5214,2.5129,2.5208,2.5208,2.5208,2.5208,2.5208,0,2.4817,2.4838,2.4875,2.4917,2.4949,2.4944,2.4977,2.5003,2.5042,2.507,2.5103,2.5149,2.5187,2.5209,2.5246,2.5268,2.5268,2.5278,2.5276,2.528,2.5221,2.5209,2.5277,2.5277,2.5277,2.5277,2.5277,2.5277,2.4861,2.4913,2.4923,2.4986,2.5006,2.505,2.5069,2.5095,2.5117,2.517,2.5201,2.5216,2.524,2.5279,2.5313,2.5318,2.5332,2.5342,2.5347,2.5291,2.5284,2.5277,2.5266,2.5345,2.5345,2.5403,2.5403,2.5404]}]]